SCP
0 0 0 0 0 0 0 0 0 0 0 0 0 0 0 0 0 0 0 0 0 0 0 0 0 0 0 0 0 0 0 0 0 0 0 0 0 0
0 0 0 0 0 0 0 0 0 0 0 0 0 0 0 0 0 0 0 0 0 0 0 0 0 0 0 0 0 0 0 0 0 0 0 0 0 0
0 0 0 0 0 0 0 0 0 0 0 0 0 0 0 0 0 0 0 0 0 0 0 0 0 0 0 0 0 0 0 0 0 0 0 0 0 0
0 0 0 0 0 0 0 0 0 0 0 0 0 0 0 0 0 0 0 0 0 0 0 0 0 0 0 0 0 0 0 0 0 0 0 0 0 0
0 0 0 0 0 0 0 0 0 0 0 0 0 0 0 0 0 0 0 0 0 0 0 0 0 0 0 0 0 0 0 0 0 0 0 0 0 0
0 0 0 0 0 0 0 0 0 0 0 0 0 0 0 0 0 0 0 0 0 0 0 0 0 0 0 0 0 0 0 0 0 0 0 0 0 0
0 0 0 0 0 0 0 0 0 0 0 0 0 0 0 0 0 0 0 0 0 0 0 0 0 0 0 0 0 0 0 0 0 0 0 0 0 0
0 0 0 0 0 0 0 0 0 0 0 0 0 0 0 0 0 0 0 0 0 0 0 0 0 0 0 0 0 0 0 0 0 0 0 0 0 0
0 0 0 0 0 0 0 0 0 0 0 0 0 0 0 0 0 0 0 0 0 0 0 0 0 0 0 0 0 0 0 0 0 0 0 0 0 0
0 0 0 0 0 0 0 0 0 0 0 0 0 0 0 0 0 0 0 0 0 0 0 0 0 0 0 0 0 0 0 0 0 0 0 0 0 0
0 0 0 0 0 0 0 0 0 0 0 0 0 0 0 0 0 0 0 0 0 0 0 0 0 0 0 0 0 0 0 0 0 0 0 0 0 0
0 0 0 0 0 0 0 0 0 0 0 0 0 0 0 0 0 0 0 0 0 0 0 0 0 0 0 0 0 0 0 0 0 0 0 0 -0 -0
0 0 0 0 0 0 0 0 0 0 0 0 0 0 0 0 0 0 0 0 0 0 0 0 0 0 0 0 0 0 0 0 0 0 0 0 0 0
0 0 0 0 0 0 0 0 0 0 0 0 0 0 0 0 0 0 0 0 0 0 0 0 0 0 0 0 0 0 0 0 0 0 0 0 0 0
0 0 0 0 0 0 0 0 0 0 0 0 0 0 0 0 0 0 0 0 0 0 0 0 0 0 0 0 0 0 0 0 0 0 0 0 0 0
0 0 0 0 0 0 0 0 0 0 0 0 0 0 0 0 0 0 0 0 0 0 0 0 0 0 0 0 0 0 0 0 0 0 0 0 0 0
0 0 0 0 0 0 0 0 0 0 0 0 0 0 0 0 0 0 0 0 0 0 0 0 0 0 0 0 0 0 0 0 0 0 0 0 0 0
0 0 0 0 0 0 0 0 0 0 0 0 0 0 0 0 0 0 0 0 0 0 0 0 0 0 0 0 0 0 0 0 0 0 0 0 0 0
0 0 0 0 0 0 0 0 0 0 0 0 0 0 0 0 0 0 0 0 0 0 0 0 0 0 0 0 0 0 0 0 0 0 0 0 0 0
0 0 0 0 0 0 0 0 0 0 0 0 0 0 0 0 0 0 0 0 0 0 0 0 0 0 0 0 0 0 0 0 0 0 0 0 0 -0
0 0 0 0 0 0 0 0 0 0 0 0 0 0 0 0 0 0 0 0 0 0 0 0 0 0 0 0 0 0 0 0 0 0 0 0 -0 -0
0 0 0 0 0 0 0 0 0 0 0 0 0 0 0 0 0 0 0 0 0 0 0 0 0 0 0 0 0 0 0 0 0 0 -0 0 0 0
0 0 0 0 0 0 0 0 0 0 0 0 0 0 0 0 0 0 0 0 0 0 0 0 0 0 0 0 -0 0 0 0 -0 0 -0 0 0 -0
Wind_Speed_500mb
46 39 36 42 52 47 43 44 42 35 35 29 14 14 20 22 23 21 22 22 22 22 27 29 31 33 35 34 34 33 35 35 36 36 34 32 29 30
39 41 38 39 39 45 45 43 40 37 34 26 28 27 22 18 20 26 29 26 27 18 21 25 26 29 32 32 33 35 33 32 32 31 28 31 32 33
32 38 41 40 42 45 45 45 43 36 33 30 26 25 25 23 21 20 31 36 39 39 37 21 19 19 21 26 28 29 29 28 27 24 27 27 25 28
27 33 37 39 42 45 44 47 38 34 27 31 31 33 31 24 17 13 12 21 29 33 40 32 21 17 16 21 21 22 22 22 21 22 23 24 24 23
6 10 29 28 28 31 33 26 27 20 21 18 13 17 32 29 15 9 10 13 21 26 26 32 27 19 15 15 19 20 21 22 23 24 23 25 24 22
5 4 3 5 2 2 4 7 11 10 15 19 15 14 17 14 10 9 9 14 14 16 17 17 18 19 20 20 12 6 11 24 25 22 21 19 18 18
8 9 7 6 8 10 10 11 10 10 8 10 12 15 13 15 16 19 23 21 23 22 23 23 19 19 20 25 21 23 23 19 17 15 13 12 13 15
17 17 16 12 10 8 6 5 3 5 7 9 10 12 15 10 6 7 15 21 22 25 29 35 31 30 27 24 21 18 14 8 6 6 6 6 7 11
19 19 20 19 19 19 17 13 10 5 1 2 6 9 9 10 12 13 17 22 17 14 14 15 11 11 10 14 20 21 21 17 13 9 8 5 6 15
18 21 19 23 25 22 19 15 19 18 23 18 16 13 8 8 12 13 10 3 6 7 14 11 10 12 17 23 27 27 17 8 7 7 7 6 9 13
16 20 19 19 21 20 14 17 20 22 21 19 18 18 18 17 16 17 11 6 1 1 6 8 9 12 16 18 18 15 15 16 18 21 23 25 16 20
12 15 15 11 10 11 11 14 13 15 14 13 14 13 13 11 9 10 10 6 5 1 0 4 8 14 13 21 26 27 28 30 33 26 32 27 15 15
13 13 11 10 7 4 7 8 9 12 11 10 11 11 12 12 13 12 12 11 9 5 8 11 15 19 21 19 25 27 27 17 14 14 13 17 21 20
12 14 12 5 4 6 4 8 11 9 7 8 9 11 14 15 16 18 17 14 12 11 10 10 9 9 9 7 5 6 10 11 12 12 14 16 18 17
11 9 9 8 11 13 15 15 12 10 8 7 12 14 17 20 20 16 15 14 11 9 5 2 5 8 10 10 8 12 13 14 17 17 16 13 18 24
14 15 16 17 17 18 17 18 18 18 17 18 18 19 20 20 20 19 15 12 9 9 5 4 4 3 7 10 16 19 14 7 8 11 13 19 21 22
16 16 16 18 21 24 25 24 21 18 17 19 19 19 19 19 16 13 12 12 11 10 6 1 5 7 10 12 19 22 11 13 10 9 11 9 15 12
15 19 21 20 19 19 19 19 18 16 16 19 19 21 21 19 15 11 10 11 12 11 8 9 8 9 8 11 22 13 2 4 8 13 13 13 12 9
21 21 17 17 17 16 15 14 15 15 17 17 17 25 23 16 12 10 11 13 9 12 10 10 8 6 12 14 6 12 9 10 10 10 11 14 17 14
16 16 13 13 15 14 16 13 12 13 13 14 18 24 22 17 12 11 11 11 9 7 5 6 7 9 10 12 16 18 12 14 14 15 17 19 19 24
4 4 5 6 7 10 14 15 11 7 6 7 11 18 21 22 15 10 10 7 4 1 2 6 9 11 13 16 19 18 10 13 18 18 14 18 26 24
5 7 7 8 6 5 10 11 13 6 7 6 9 15 20 20 15 10 10 6 1 1 3 11 18 16 13 10 7 10 7 7 15 18 20 22 21 9
6 8 12 14 16 13 11 8 11 6 5 7 10 15 18 22 18 8 7 2 4 4 9 10 14 10 8 4 5 5 6 13 17 11 11 8 4 8
Wind_Direction_500mb
233 240 242 237 235 244 250 251 250 256 274 257 272 289 279 268 269 263 256 243 240 239 233 236 226 229 231 235 232 241 239 244 246 241 235 238 230 222
235 235 238 237 235 236 244 248 248 261 260 264 283 288 294 282 270 257 249 243 250 243 237 233 235 235 237 239 236 239 247 250 240 227 231 235 240 236
235 236 239 240 235 241 246 247 248 258 252 264 278 298 291 289 287 277 251 256 252 245 245 231 241 234 240 242 241 238 236 233 233 228 226 231 213 210
243 242 239 232 241 256 249 252 249 253 264 267 276 289 291 283 278 277 272 256 239 234 241 240 236 232 246 247 238 231 227 221 213 211 210 215 219 219
200 258 247 242 246 254 240 246 256 263 281 285 306 304 267 247 232 250 256 253 245 245 241 233 231 228 220 231 234 223 218 219 221 216 214 216 217 225
113 144 202 249 264 254 279 270 273 277 276 292 315 310 291 278 255 248 268 270 254 243 235 236 220 218 207 198 192 226 270 263 234 215 203 209 222 236
141 146 143 170 183 177 203 219 227 264 292 299 289 231 226 268 262 259 266 245 224 215 220 221 235 235 234 228 219 226 212 194 195 200 207 221 246 258
88 92 98 91 90 78 65 39 344 289 262 265 273 289 279 275 325 286 265 233 204 211 211 188 201 193 187 176 175 159 162 185 210 244 259 276 304 323
108 107 109 102 92 81 73 65 69 92 154 324 336 333 321 329 323 305 274 242 220 204 185 170 177 195 203 193 188 198 204 204 221 243 300 309 339 341
100 99 98 98 88 71 60 59 65 76 70 64 52 48 42 30 51 36 27 294 201 209 221 193 182 197 208 214 213 216 215 197 207 236 236 285 331 340
106 103 94 91 86 77 59 61 65 70 74 71 67 59 52 44 43 48 57 55 76 265 266 263 226 198 199 213 223 223 232 237 224 221 250 295 300 313
121 123 107 97 94 77 63 49 32 65 61 46 51 58 60 53 41 27 27 18 31 14 288 247 208 201 206 223 227 232 237 247 254 261 295 304 292 266
135 126 119 122 119 67 23 22 45 68 71 65 57 48 39 38 37 29 18 8 11 14 321 266 245 243 245 257 253 265 277 274 256 267 251 241 250 267
135 135 131 134 347 8 55 86 81 67 51 37 37 34 20 16 15 12 13 16 21 25 23 33 42 34 26 12 346 297 284 273 265 246 244 245 254 262
121 113 95 74 67 73 77 79 80 76 57 32 40 34 27 21 17 15 16 23 21 16 353 36 61 34 39 42 9 329 314 277 241 234 238 260 283 288
114 110 104 94 85 79 81 79 75 71 64 59 50 37 26 22 27 43 50 49 29 32 42 189 186 349 359 355 350 338 291 275 218 231 279 297 298 282
115 112 104 93 91 79 76 70 64 61 58 53 47 39 32 28 35 42 45 40 47 52 54 209 267 282 304 315 330 328 311 222 237 254 303 315 338 324
117 110 107 98 85 74 64 52 50 56 55 50 45 35 26 32 41 42 37 24 16 4 327 279 288 305 310 330 330 321 225 260 278 278 297 299 333 305
104 99 96 87 69 57 43 37 55 67 71 63 42 28 30 35 35 23 13 15 21 24 46 70 76 31 354 349 2 26 354 314 300 294 284 307 315 326
100 92 85 76 59 61 43 48 52 61 64 44 32 25 30 29 27 16 8 16 32 52 96 34 0 335 335 337 337 336 319 314 310 304 280 287 308 315
101 89 60 54 47 38 34 37 23 13 14 9 11 20 18 18 14 1 350 348 26 26 344 341 334 323 312 313 318 326 321 286 285 292 271 294 311 321
304 273 277 271 275 300 352 12 10 321 298 295 323 346 352 358 356 347 351 2 181 157 347 335 333 322 307 312 326 325 333 330 311 289 282 293 305 315
325 308 282 263 249 264 294 326 345 355 247 266 303 317 327 336 334 324 349 35 168 333 334 338 356 12 27 23 357 5 32 36 31 44 39 76 359 317
Wind_Speed_850mb
46 39 36 42 52 47 43 44 42 35 35 29 14 14 20 22 23 21 22 22 22 22 27 29 31 33 35 34 34 33 35 35 36 36 34 32 29 30
39 41 38 39 39 45 45 43 40 37 34 26 28 27 22 18 20 26 29 26 27 18 21 25 26 29 32 32 33 35 33 32 32 31 28 31 32 33
32 38 41 40 42 45 45 45 43 36 33 30 26 25 25 23 21 20 31 36 39 39 37 21 19 19 21 26 28 29 29 28 27 24 27 27 25 28
27 33 37 39 42 45 44 47 38 34 27 31 31 33 31 24 17 13 12 21 29 33 40 32 21 17 16 21 21 22 22 22 21 22 23 24 24 23
6 10 29 28 28 31 33 26 27 20 21 18 13 17 32 29 15 9 10 13 21 26 26 32 27 19 15 15 19 20 21 22 23 24 23 25 24 22
5 4 3 5 2 2 4 7 11 10 15 19 15 14 17 14 10 9 9 14 14 16 17 17 18 19 20 20 12 6 11 24 25 22 21 19 18 18
8 9 7 6 8 10 10 11 10 10 8 10 12 15 13 15 16 19 23 21 23 22 23 23 19 19 20 25 21 23 23 19 17 15 13 12 13 15
17 17 16 12 10 8 6 5 3 5 7 9 10 12 15 10 6 7 15 21 22 25 29 35 31 30 27 24 21 18 14 8 6 6 6 6 7 11
19 19 20 19 19 19 17 13 10 5 1 2 6 9 9 10 12 13 17 22 17 14 14 15 11 11 10 14 20 21 21 17 13 9 8 5 6 15
18 21 19 23 25 22 19 15 19 18 23 18 16 13 8 8 12 13 10 3 6 7 14 11 10 12 17 23 27 27 17 8 7 7 7 6 9 13
16 20 19 19 21 20 14 17 20 22 21 19 18 18 18 17 16 17 11 6 1 1 6 8 9 12 16 18 18 15 15 16 18 21 23 25 16 20
12 15 15 11 10 11 11 14 13 15 14 13 14 13 13 11 9 10 10 6 5 1 0 4 8 14 13 21 26 27 28 30 33 26 32 27 15 15
13 13 11 10 7 4 7 8 9 12 11 10 11 11 12 12 13 12 12 11 9 5 8 11 15 19 21 19 25 27 27 17 14 14 13 17 21 20
12 14 12 5 4 6 4 8 11 9 7 8 9 11 14 15 16 18 17 14 12 11 10 10 9 9 9 7 5 6 10 11 12 12 14 16 18 17
11 9 9 8 11 13 15 15 12 10 8 7 12 14 17 20 20 16 15 14 11 9 5 2 5 8 10 10 8 12 13 14 17 17 16 13 18 24
14 15 16 17 17 18 17 18 18 18 17 18 18 19 20 20 20 19 15 12 9 9 5 4 4 3 7 10 16 19 14 7 8 11 13 19 21 22
16 16 16 18 21 24 25 24 21 18 17 19 19 19 19 19 16 13 12 12 11 10 6 1 5 7 10 12 19 22 11 13 10 9 11 9 15 12
15 19 21 20 19 19 19 19 18 16 16 19 19 21 21 19 15 11 10 11 12 11 8 9 8 9 8 11 22 13 2 4 8 13 13 13 12 9
21 21 17 17 17 16 15 14 15 15 17 17 17 25 23 16 12 10 11 13 9 12 10 10 8 6 12 14 6 12 9 10 10 10 11 14 17 14
16 16 13 13 15 14 16 13 12 13 13 14 18 24 22 17 12 11 11 11 9 7 5 6 7 9 10 12 16 18 12 14 14 15 17 19 19 24
4 4 5 6 7 10 14 15 11 7 6 7 11 18 21 22 15 10 10 7 4 1 2 6 9 11 13 16 19 18 10 13 18 18 14 18 26 24
5 7 7 8 6 5 10 11 13 6 7 6 9 15 20 20 15 10 10 6 1 1 3 11 18 16 13 10 7 10 7 7 15 18 20 22 21 9
6 8 12 14 16 13 11 8 11 6 5 7 10 15 18 22 18 8 7 2 4 4 9 10 14 10 8 4 5 5 6 13 17 11 11 8 4 8
Wind_Direction_850mb
233 240 242 237 235 244 250 251 250 256 274 257 272 289 279 268 269 263 256 243 240 239 233 236 226 229 231 235 232 241 239 244 246 241 235 238 230 222
235 235 238 237 235 236 244 248 248 261 260 264 283 288 294 282 270 257 249 243 250 243 237 233 235 235 237 239 236 239 247 250 240 227 231 235 240 236
235 236 239 240 235 241 246 247 248 258 252 264 278 298 291 289 287 277 251 256 252 245 245 231 241 234 240 242 241 238 236 233 233 228 226 231 213 210
243 242 239 232 241 256 249 252 249 253 264 267 276 289 291 283 278 277 272 256 239 234 241 240 236 232 246 247 238 231 227 221 213 211 210 215 219 219
200 258 247 242 246 254 240 246 256 263 281 285 306 304 267 247 232 250 256 253 245 245 241 233 231 228 220 231 234 223 218 219 221 216 214 216 217 225
113 144 202 249 264 254 279 270 273 277 276 292 315 310 291 278 255 248 268 270 254 243 235 236 220 218 207 198 192 226 270 263 234 215 203 209 222 236
141 146 143 170 183 177 203 219 227 264 292 299 289 231 226 268 262 259 266 245 224 215 220 221 235 235 234 228 219 226 212 194 195 200 207 221 246 258
88 92 98 91 90 78 65 39 344 289 262 265 273 289 279 275 325 286 265 233 204 211 211 188 201 193 187 176 175 159 162 185 210 244 259 276 304 323
108 107 109 102 92 81 73 65 69 92 154 324 336 333 321 329 323 305 274 242 220 204 185 170 177 195 203 193 188 198 204 204 221 243 300 309 339 341
100 99 98 98 88 71 60 59 65 76 70 64 52 48 42 30 51 36 27 294 201 209 221 193 182 197 208 214 213 216 215 197 207 236 236 285 331 340
106 103 94 91 86 77 59 61 65 70 74 71 67 59 52 44 43 48 57 55 76 265 266 263 226 198 199 213 223 223 232 237 224 221 250 295 300 313
121 123 107 97 94 77 63 49 32 65 61 46 51 58 60 53 41 27 27 18 31 14 288 247 208 201 206 223 227 232 237 247 254 261 295 304 292 266
135 126 119 122 119 67 23 22 45 68 71 65 57 48 39 38 37 29 18 8 11 14 321 266 245 243 245 257 253 265 277 274 256 267 251 241 250 267
135 135 131 134 347 8 55 86 81 67 51 37 37 34 20 16 15 12 13 16 21 25 23 33 42 34 26 12 346 297 284 273 265 246 244 245 254 262
121 113 95 74 67 73 77 79 80 76 57 32 40 34 27 21 17 15 16 23 21 16 353 36 61 34 39 42 9 329 314 277 241 234 238 260 283 288
114 110 104 94 85 79 81 79 75 71 64 59 50 37 26 22 27 43 50 49 29 32 42 189 186 349 359 355 350 338 291 275 218 231 279 297 298 282
115 112 104 93 91 79 76 70 64 61 58 53 47 39 32 28 35 42 45 40 47 52 54 209 267 282 304 315 330 328 311 222 237 254 303 315 338 324
117 110 107 98 85 74 64 52 50 56 55 50 45 35 26 32 41 42 37 24 16 4 327 279 288 305 310 330 330 321 225 260 278 278 297 299 333 305
104 99 96 87 69 57 43 37 55 67 71 63 42 28 30 35 35 23 13 15 21 24 46 70 76 31 354 349 2 26 354 314 300 294 284 307 315 326
100 92 85 76 59 61 43 48 52 61 64 44 32 25 30 29 27 16 8 16 32 52 96 34 0 335 335 337 337 336 319 314 310 304 280 287 308 315
101 89 60 54 47 38 34 37 23 13 14 9 11 20 18 18 14 1 350 348 26 26 344 341 334 323 312 313 318 326 321 286 285 292 271 294 311 321
304 273 277 271 275 300 352 12 10 321 298 295 323 346 352 358 356 347 351 2 181 157 347 335 333 322 307 312 326 325 333 330 311 289 282 293 305 315
325 308 282 263 249 264 294 326 345 355 247 266 303 317 327 336 334 324 349 35 168 333 334 338 356 12 27 23 357 5 32 36 31 44 39 76 359 317